STARLINK-1962, 47563

Orbit data source: Space-Track

STARLINK-1962, 47563 is a payload satellite owned by SpaceX/Seattle (US) in LEO that was launched on Thu, 04 Feb 2021 UTC via an FALCON 9 launch vehicle from the Air Force Eastern Test Range (AFETR). Payload-class satellites include a variety of spacecraft equipped with specific instruments for various scientific and technological missions. These include communications satellites like Starlink; space stations such as the ISS; scientific satellites like the Hubble; Earth observation satellites from companies like Planet Labs, Umbra, and HawkEye 360; GPS; miniature CubeSats for education and research; and military/defense satellites.

Not visible in the next 10 days
Identifier
47563, 2021-009R
Orbit
LEO
Country
Flag of USUS
Related business
Manufacturer
SpaceX/Seattle
Mission
Partially operational Commercial Communications
Bus & Motor
STARLINK, Unknown motor
Mass
260 kg wet, ~248 kg dry
Launch date (UTC)
2021-02-04 (5 years ago)
Launch vehicle
FALCON 9
Launch site
Air Force Eastern Test Range (AFETR)
Object type
Payload
Rocket body
Debris
Shape & HBR
Box + 1 Pan, 10.1 m
Radar Cross Section
13.562 m², Large (>1 m²)

Expand to show TLE details & history
Last TLE update: 2 days ago

TLE from 2 days ago
0 STARLINK-1962
1 47563U 21009R   26171.50003471  .00291195  44737-4  70269-3 0  9997
2 47563  53.0333 204.5808 0004318  21.5098  32.3759 15.95925599  6040
Epoch: 2026-06-20T12:00Z
TLE epoch observation values (Epoch: 2026-06-20T12:00:02.998Z)
Latitude
40.34996°
Longitude
155.33338°
Altitude
286.944 km
Speed
7.742 km/s
True Right ascension
16h 16m 14s
True Declination
40° 10' 06"
Sunlit
Object was in full shadow at epoch
Visualization orbit readout
Latitude
Unknown
Longitude
Unknown
Altitude
Unknown
Speed
Unknown
Apparent Right ascension
Unknown
Apparent Declination
Unknown
Sunlit
N/A
Visualization observer readout
Local Sidereal Time
23:18:18
Azimuth
Unknown
Elevation
Unknown
Doppler factor
Unknown
Orbital elements
Apogee altitude
288.899 km
Perigee altitude
283.144 km
Semi-major axis
6,664.158 km
Eccentricity
0.00043
Inclination
53.0333°
RAAN
204.5808°
Arg. of periapsis
21.5098°
True anomaly
32.40241°
Mean anomaly
32.3759°
Eccentric anomaly
32.38915°
Mean motion
3.98956 °/min
Orbital period
90.24 mins
BSTAR
0.00070269
Loading maneuver chart data...
Computing Atmospheric mass density...

Documentation

Showing up to 5 results
|